Date String (YYYY-MM-DD hh:mm:ss) UTC,Instrument flags,Ambient pressure (hPa),Sample flow (lpm),Bypass flow (lpm),Sample temperature (°C),Ambient temperature (°C),ASC tube jacket temperature (°C),LED temperature (°C),Box temperature (°C),Sample RH (%),Span deviation,Mass concentration (μg/m³),Mass concentration (μg/m³),Mass concentration (μg/m³)
DateTimeUTC,F1_M11,P_M11,Q1_M11,Q2_M11,T1_M11,T2_M11,T3_M11,T4_M11,T5_M11,U1_M11,ZSPAN_M11,X0_M11,X2_M11,X1_M11
2022-02-11 12:00:00,,0823.4,4.99,0.00,22.1,21.8,00.0,31.2,23.9,15.3,0000.0,0010.75,0002.67,0001.62
2022-02-11 12:01:00,,0823.4,5.00,0.00,22.1,21.7,00.0,31.2,23.8,15.3,0000.0,0009.99,0002.59,0001.59
2022-02-11 12:02:00,,0823.4,5.00,0.00,22.1,21.6,00.0,31.2,23.8,15.3,0000.0,0009.53,0002.48,0001.57
2022-02-11 12:03:00,,0823.3,5.00,0.00,22.1,21.5,00.0,31.2,23.8,15.3,0000.0,0009.18,0002.41,0001.57
2022-02-11 12:04:00,,0823.4,5.00,0.00,22.0,21.5,00.0,31.1,23.8,15.3,0000.0,0008.87,0002.33,0001.55
2022-02-11 12:05:00,,0823.3,4.99,0.00,22.0,21.4,00.0,31.1,23.8,15.4,0000.0,0008.07,0002.32,0001.54
2022-02-11 12:06:00,,0823.3,5.00,0.00,22.0,21.4,00.0,31.1,23.7,15.4,0000.0,0007.73,0002.27,0001.53
2022-02-11 12:07:00,,0823.2,4.99,0.00,22.0,21.3,00.0,31.1,23.7,15.4,0000.0,0007.46,0002.20,0001.53
2022-02-11 12:08:00,,0823.2,5.00,0.00,21.9,21.2,00.0,31.1,23.6,15.4,0000.0,0005.86,0002.18,0001.53
2022-02-11 12:09:00,,0823.3,5.01,0.00,21.9,21.2,00.0,31.1,23.6,15.5,0000.0,0004.79,0002.17,0001.54
2022-02-11 12:10:00,,0823.4,4.98,0.00,21.9,21.1,00.0,31.0,23.5,15.5,0000.0,0004.63,0002.15,0001.54
2022-02-11 12:11:00,,0823.5,5.02,0.00,21.9,21.1,00.0,31.0,23.5,15.5,0000.0,0004.78,0002.16,0001.55
2022-02-11 12:12:00,,0823.7,4.99,0.00,21.9,21.5,00.0,31.0,23.7,15.5,0000.0,0005.14,0002.23,0001.56
2022-02-11 12:13:00,,0823.9,5.00,0.00,22.0,22.3,00.0,31.1,24.0,15.4,0000.0,0005.42,0002.25,0001.56
2022-02-11 12:14:00,,0823.9,5.01,0.00,22.2,22.9,00.0,31.1,24.2,15.2,0000.0,0005.37,0002.28,0001.56
2022-02-11 12:15:00,,0824.0,4.99,0.00,22.3,22.7,00.0,31.1,24.3,15.1,0000.0,0005.56,0002.27,0001.55
2022-02-11 12:16:00,,0824.0,5.00,0.00,22.3,22.5,00.0,31.1,24.2,15.1,0000.0,0006.96,0002.24,0001.55
2022-02-11 12:17:00,,0824.0,4.99,0.00,22.3,22.4,00.0,31.2,24.2,15.1,0000.0,0007.70,0002.27,0001.56
2022-02-11 12:18:00,,0823.9,5.01,0.00,22.3,22.3,00.0,31.2,24.2,15.0,0000.0,0008.40,0002.26,0001.57
2022-02-11 12:19:00,,0823.9,4.99,0.00,22.3,22.2,00.0,31.2,24.1,15.0,0000.0,0008.48,0002.28,0001.58
2022-02-11 12:20:00,,0824.0,5.00,0.00,22.3,22.1,00.0,31.2,24.1,15.0,0000.0,0009.10,0002.32,0001.59
2022-02-11 12:21:00,,0824.1,4.99,0.00,22.3,22.0,00.0,31.2,24.1,15.1,0000.0,0009.56,0002.32,0001.60
2022-02-11 12:22:00,,0824.1,5.01,0.00,22.3,21.9,00.0,31.2,24.0,15.1,0000.0,0009.68,0002.26,0001.60
2022-02-11 12:23:00,,0824.2,4.99,0.00,22.3,21.8,00.0,31.2,24.0,15.1,0000.0,0009.62,0002.21,0001.61
2022-02-11 12:24:00,,0824.2,5.00,0.00,22.2,21.8,00.0,31.2,24.0,15.1,0000.0,0009.58,0002.18,0001.62
2022-02-11 12:25:00,,0824.3,4.99,0.00,22.2,21.7,00.0,31.2,24.0,15.1,0000.0,0009.48,0002.15,0001.63
2022-02-11 12:26:00,,0824.4,5.01,0.00,22.2,21.7,00.0,31.2,24.0,15.1,0000.0,0009.33,0002.13,0001.64
2022-02-11 12:27:00,,0824.4,5.00,0.00,22.2,21.7,00.0,31.2,24.1,15.0,0000.0,0009.36,0002.16,0001.65
2022-02-11 12:28:00,,0824.5,4.99,0.00,22.2,21.7,00.0,31.2,24.1,15.0,0000.0,0009.87,0002.14,0001.65
2022-02-11 12:29:00,,0824.5,5.00,0.00,22.3,21.7,00.0,31.2,24.1,15.0,0000.0,0009.06,0002.15,0001.65
2022-02-11 12:30:00,,0824.4,4.99,0.00,22.3,21.7,00.0,31.2,24.1,15.0,0000.0,0009.03,0002.19,0001.65
2022-02-11 12:31:00,,0824.4,5.01,0.00,22.2,21.7,00.0,31.2,24.0,15.0,0000.0,0008.59,0002.19,0001.65
2022-02-11 12:32:00,,0824.3,4.97,0.00,22.2,21.6,00.0,31.2,24.0,15.0,0000.0,0008.16,0002.24,0001.65
2022-02-11 12:33:00,,0824.4,5.00,0.00,22.2,21.6,00.0,31.2,24.0,15.0,0000.0,0007.75,0002.27,0001.66
2022-02-11 12:34:00,,0824.5,5.00,0.00,22.2,21.6,00.0,31.2,24.0,15.0,0000.0,0007.65,0002.26,0001.66
2022-02-11 12:35:00,,0824.6,4.99,0.00,22.2,21.5,00.0,31.2,23.9,15.1,0000.0,0007.51,0002.24,0001.65
2022-02-11 12:36:00,,0824.6,5.00,0.00,22.2,21.5,00.0,31.2,23.9,15.1,0000.0,0007.43,0002.21,0001.65
2022-02-11 12:37:00,,0824.7,4.99,0.00,22.1,21.4,00.0,31.2,23.8,15.1,0000.0,0007.31,0002.19,0001.65
2022-02-11 12:38:00,,0824.7,4.99,0.00,22.1,21.3,00.0,31.2,23.7,15.2,0000.0,0005.92,0002.16,0001.66
2022-02-11 12:39:00,,0824.7,5.01,0.00,22.0,21.3,00.0,31.1,23.7,15.2,0000.0,0003.85,0002.22,0001.67
2022-02-11 12:40:00,,0824.8,4.99,0.00,22.0,21.2,00.0,31.1,23.6,15.2,0000.0,0003.69,0002.18,0001.67
2022-02-11 12:41:00,,0824.9,5.01,0.00,21.9,21.1,00.0,31.1,23.5,15.3,0000.0,0003.81,0002.15,0001.67
2022-02-11 12:42:00,,0824.9,5.00,0.00,21.9,21.0,00.0,31.1,23.5,15.3,0000.0,0004.34,0002.21,0001.68
2022-02-11 12:43:00,,0825.1,4.99,0.00,21.9,21.0,00.0,31.0,23.5,15.4,0000.0,0004.32,0002.18,0001.69
2022-02-11 12:44:00,,0825.1,5.01,0.00,21.8,21.0,00.0,31.0,23.4,15.4,0000.0,0004.40,0002.21,0001.69
2022-02-11 12:45:00,,0825.1,4.99,0.00,21.8,20.9,00.0,31.0,23.4,15.4,0000.0,0004.53,0002.26,0001.70
2022-02-11 12:46:00,,0825.1,5.00,0.00,21.8,20.9,00.0,31.0,23.4,15.4,0000.0,0004.65,0002.32,0001.71
2022-02-11 12:47:00,,0825.1,5.02,0.00,21.7,20.8,00.0,31.0,23.4,15.5,0000.0,0004.80,0002.37,0001.71
2022-02-11 12:48:00,,0825.2,4.98,0.00,21.7,20.7,00.0,30.9,23.3,15.5,0000.0,0005.78,0002.41,0001.72
2022-02-11 12:49:00,,0825.2,5.02,0.00,21.7,20.6,00.0,30.9,23.3,15.6,0000.0,0006.57,0002.47,0001.73
2022-02-11 12:50:00,,0825.2,5.00,0.00,21.6,20.6,00.0,30.9,23.2,15.6,0000.0,0007.03,0002.39,0001.72
2022-02-11 12:51:00,,0825.2,4.99,0.00,21.6,20.6,00.0,30.8,23.2,15.6,0000.0,0006.98,0002.36,0001.71
2022-02-11 12:52:00,,0825.2,5.01,0.00,21.5,20.6,00.0,30.8,23.1,15.6,0000.0,0007.05,0002.36,0001.71
2022-02-11 12:53:00,,0825.3,4.98,0.00,21.5,20.5,00.0,30.8,23.1,15.7,0000.0,0007.14,0002.31,0001.72
2022-02-11 12:54:00,,0825.2,5.01,0.00,21.5,20.9,00.0,30.8,23.2,15.7,0000.0,0006.92,0002.30,0001.72
2022-02-11 12:55:00,,0825.2,5.00,0.00,21.7,21.7,00.0,30.8,23.5,15.6,0000.0,0006.77,0002.26,0001.73
2022-02-11 12:56:00,,0825.2,5.01,0.00,21.8,22.5,00.0,30.8,23.8,15.4,0000.0,0006.69,0002.22,0001.73
2022-02-11 12:57:00,,0825.3,4.99,0.00,21.9,22.6,00.0,30.9,23.9,15.4,0000.0,0006.48,0002.17,0001.72
2022-02-11 12:58:00,,0825.3,5.00,0.00,21.9,22.3,00.0,30.9,23.8,15.4,0000.0,0006.37,0002.12,0001.71
2022-02-11 12:59:00,,0825.3,5.01,0.00,21.9,22.0,00.0,30.9,23.7,15.4,0000.0,0005.79,0002.12,0001.72
